Fairchild Air Force Base, WA

7:44 AM PST on February 08, 2016 (GMT -0800)
Fairchild Air Force Base

Weather History for KSKA - October, 2012

Change the Weather History Date:

Tuesday, October 9, 2012

  Actual Average Record
Temperature  
Mean Temperature 50 °F -  
Max Temperature 65 °F 59 °F 75 °F (1996)
Min Temperature 36 °F 37 °F 28 °F (2008)
Degree Days  
Heating Degree Days 15    
Moisture  
Dew Point 30 °F    
Average Humidity 52    
Maximum Humidity 70    
Minimum Humidity 30    
Precipitation  
Precipitation 0.00 in - - ()
Sea Level Pressure  
Sea Level Pressure 30.04 in    
Wind  
Wind Speed 3 mph (East)    
Max Wind Speed 10 mph    
Max Gust Speed -    
Visibility 8 miles    
Events      
Averages and records for this station are not official NWS values.
T = Trace of Precipitation, MM = Missing Value Source: NWS Daily Summary

Daily Weather History Graph

Daily Weather History Graph

Search for Another Location

Airport or City:

Trip Planner

Search our weather history database for the weather conditions in past years. The results will help you decide how hot, cold, wet, or windy it might be!

Date:

Astronomy

Oct. 09, 2012 Rise Set
Actual Time 7:01 AM PDT 6:12 PM PDT
Civil Twilight 6:30 AM PDT 6:43 PM PDT
Nautical Twilight 5:55 AM PDT 7:19 PM PDT
Astronomical Twilight 5:19 AM PDT 7:55 PM PDT
Moon 12:18 AM PDT (10/9) 3:05 PM PDT (10/9)
Length of Visible Light 12h 12m
Length of Day
11h 11m
Waning Crescent, 35% of the Moon is Illuminated
Oct 9
Waning Crescent
Oct 15
New
Oct 21
First Quarter
Oct 29
Full
Nov 6
Last Quarter

Hourly Weather History & Observations

Time (PDT) Temp. Windchill Dew Point Humidity Pressure Visibility Wind Dir Wind Speed Gust Speed Precip Events Conditions
12:55 AM 45.0 °F 42.6 °F 28.6 °F 53% 29.98 in 10.0 mi South 4.6 mph - N/A   Clear
1:48 AM 44.6 °F 42.2 °F 30.2 °F 57% 29.99 in 10.0 mi SSW 4.6 mph - N/A   Clear
1:55 AM 44.8 °F 42.4 °F 29.5 °F 55% 29.99 in 10.0 mi SSW 4.6 mph - 0.00 in   Clear
1:57 AM 44.6 °F 42.2 °F 30.2 °F 57% 29.99 in 10.0 mi SSW 4.6 mph - N/A   Clear
2:55 AM 44.1 °F - 28.6 °F 55% 30.00 in 10.0 mi Calm Calm - 0.00 in   Clear
3:55 AM 43.9 °F 42.3 °F 28.8 °F 55% 30.01 in 10.0 mi East 3.5 mph - N/A   Clear
4:02 AM 42.8 °F 39.3 °F 28.4 °F 57% 30.02 in 10.0 mi East 5.8 mph - N/A   Clear
4:13 AM 39.2 °F - 30.2 °F 70% 30.03 in 10.0 mi Calm Calm - N/A   Clear
4:55 AM 42.3 °F - 29.1 °F 60% 30.02 in 10.0 mi Calm Calm - 0.00 in   Clear
5:35 AM 42.8 °F - 26.6 °F 53% 30.03 in 4.0 mi Calm Calm - N/A   Haze
5:39 AM 42.8 °F - 26.6 °F 53% 30.03 in 3.0 mi Calm Calm - N/A   Haze
5:55 AM 42.6 °F - 27.3 °F 55% 30.04 in 3.0 mi Calm Calm - N/A   Haze
6:03 AM 41.0 °F - 26.6 °F 57% 30.04 in 2.5 mi Calm Calm - N/A   Haze
6:12 AM 39.2 °F 35.9 °F 26.6 °F 61% 30.05 in 3.0 mi NE 4.6 mph - N/A   Haze
6:14 AM 39.2 °F 35.0 °F 26.6 °F 61% 30.05 in 3.0 mi NE 5.8 mph - N/A   Clear
6:26 AM 37.4 °F 32.8 °F 26.6 °F 65% 30.05 in 3.0 mi NE 5.8 mph - N/A   Haze
6:42 AM 37.4 °F 33.8 °F 28.4 °F 70% 30.06 in 3.0 mi ENE 4.6 mph - N/A   Haze
6:46 AM 37.4 °F 34.9 °F 28.4 °F 70% 30.06 in 2.5 mi ENE 3.5 mph - N/A   Haze
6:55 AM 36.9 °F 34.3 °F 27.3 °F 68% 30.07 in 2.0 mi ENE 3.5 mph - 0.00 in   Haze
7:41 AM 39.2 °F 37.0 °F 26.6 °F 61% 30.05 in 10.0 mi ENE 3.5 mph - N/A   Clear
7:55 AM 42.8 °F - 26.4 °F 52% 30.07 in 10.0 mi Calm Calm - N/A   Clear
8:55 AM 47.3 °F - 28.8 °F 49% 30.09 in 10.0 mi Calm Calm - 0.00 in   Clear
9:55 AM 53.6 °F - 36.5 °F 52% 30.10 in 10.0 mi NE 5.8 mph - N/A   Clear
10:55 AM 57.7 °F - 35.6 °F 44% 30.10 in 10.0 mi NNE 10.4 mph - N/A   Clear
11:55 AM 59.2 °F - 34.9 °F 40% 30.09 in 10.0 mi NNE 8.1 mph - N/A   Clear
12:55 PM 61.5 °F - 33.1 °F 34% 30.08 in 10.0 mi ENE 5.8 mph - N/A   Clear
1:55 PM 63.3 °F - 33.4 °F 33% 30.06 in 10.0 mi North 3.5 mph - N/A   Clear
2:55 PM 64.4 °F - 33.3 °F 31% 30.06 in 10.0 mi North 3.5 mph - N/A   Clear
3:55 PM 64.8 °F - 32.9 °F 30% 30.04 in 10.0 mi Variable 4.6 mph - N/A   Clear
4:55 PM 64.6 °F - 32.9 °F 31% 30.04 in 10.0 mi Calm Calm - N/A   Clear
5:55 PM 61.5 °F - 32.7 °F 34% 30.04 in 10.0 mi South 3.5 mph - N/A   Clear
6:55 PM 58.6 °F - 32.7 °F 38% 30.04 in 10.0 mi South 3.5 mph - N/A   Clear
7:55 PM 52.2 °F - 32.9 °F 48% 30.05 in 10.0 mi SSW 3.5 mph - N/A   Clear
8:55 PM 52.7 °F - 32.7 °F 47% 30.04 in 10.0 mi SSW 3.5 mph - N/A   Clear
9:55 PM 52.5 °F - 33.6 °F 49% 30.02 in 10.0 mi West 3.5 mph - N/A   Clear
10:55 PM 50.0 °F - 33.3 °F 53% 30.02 in 10.0 mi SW 3.5 mph - N/A   Clear
11:55 PM 47.8 °F - 31.3 °F 53% 30.01 in 10.0 mi SW 3.5 mph - N/A   Clear